Tracking 33744 objects as of 14-Apr-2026
HD Live streaming from Space Station
objects crossing your sky now

TITAN 3C TRANSTAGE DEB

Track TITAN 3C TRANSTAGE DEB now!


NORAD ID: 26050
Int'l Code: 1965-108AJ
Perigee: 970.7 km
Apogee: 29,876.5 km
Inclination: 26.3 °
Period: 533.7 minutes
Semi major axis: 21794 km
RCS: 0.1424 m2 (medium)
Launch date: December 21, 1965
Source: United States (US)
Launch site: AIR FORCE EASTERN TEST RANGE (AFETR)

Note: This is SATELLITE DEBRIS
Your satellite tracking list
Your tracking list is empty




NASA's NSSDC Master Catalog

Two Line Element Set (TLE):
1 26050U 65108AJ  26101.55876762  .00000435  00000-0  26046-1 0  9990
2 26050  26.2958 255.6366 6631420 224.1519  58.2311  2.69823903264426
Source of the keplerian elements: AFSPC